ECMWFFLT1_sfc_thetae_111.txt.gz
Theta_e
338 338 338 337 336 339 337 340 340 340 340 342 341 342 346 350 352 352 352 354 355 356 358 357 356 357 357 359 359 357 357 357 357 356 356 358 359 358 358 360 358 357 357 356 357 356 356 360 354 359 359 359 361 364 364 364 363 368 364 367 365 367 363
336 338 340 339 337 338 343 341 341 343 342 343 341 342 346 349 351 351 352 353 355 356 358 357 357 356 358 359 359 359 359 357 359 360 358 358 359 359 359 358 358 357 360 357 361 362 363 361 360 358 358 360 359 362 363 365 363 363 362 361 361 363 364
336 338 338 338 336 336 339 341 341 342 341 341 342 344 348 350 351 351 352 353 354 356 357 357 357 356 358 357 357 358 359 359 360 358 357 355 356 358 359 361 361 361 360 362 365 364 362 360 356 360 358 357 357 361 361 362 364 364 366 366 363 361 361
336 338 338 338 338 337 337 340 342 341 341 342 342 345 348 350 352 352 353 355 353 355 355 356 357 356 358 356 356 356 356 359 361 359 357 355 354 358 357 359 360 360 359 360 363 363 363 359 358 361 367 356 356 360 362 362 362 363 364 366 365 363 361
337 337 336 336 335 337 338 342 344 344 341 342 343 346 348 351 353 354 354 355 354 354 355 356 358 357 358 357 357 357 356 358 360 360 357 356 356 356 356 355 355 356 358 359 358 361 357 359 358 359 358 360 361 360 359 361 362 362 363 365 363 362 363
335 337 338 337 336 339 339 339 339 340 342 341 347 346 348 351 353 354 354 355 354 355 355 355 355 356 355 357 357 357 357 359 359 358 356 357 356 355 356 355 355 356 360 358 361 359 359 357 358 358 358 359 360 360 359 360 361 363 362 365 363 361 361
335 337 338 341 342 345 340 340 339 341 342 346 349 349 348 352 353 353 354 354 355 353 352 353 354 355 354 356 355 357 355 357 357 354 354 356 356 355 355 355 357 357 355 357 356 358 357 358 356 359 358 356 357 357 358 359 358 360 361 361 361 362 359
336 336 338 341 343 344 347 341 341 341 341 345 345 347 348 350 351 351 351 351 350 350 352 352 352 354 353 354 354 355 356 356 356 354 353 355 355 355 353 354 356 355 355 355 356 357 358 358 358 359 358 357 356 355 358 359 360 360 362 361 361 362 361
336 337 338 343 345 347 349 345 346 343 344 343 343 346 349 349 347 346 346 346 346 346 344 347 350 351 352 352 352 352 355 355 355 354 353 355 354 354 354 355 355 357 355 354 355 356 356 358 357 357 358 357 357 359 357 361 360 359 358 359 360 359 358
335 336 339 342 343 347 347 349 347 345 346 346 345 346 346 347 348 348 347 347 346 346 348 349 350 354 352 351 350 351 352 352 353 353 352 350 353 352 353 354 354 357 354 353 353 355 355 356 356 359 358 358 357 359 358 362 361 361 360 359 359 360 359
336 336 338 340 342 344 343 346 346 346 347 346 345 346 346 347 348 349 349 348 348 349 350 350 352 351 351 351 349 349 349 350 350 351 350 349 348 351 352 352 353 355 354 353 352 353 354 356 358 356 358 358 356 359 358 358 360 361 360 358 359 359 359
336 335 337 338 339 339 340 342 344 346 347 347 347 346 345 345 347 348 348 348 349 347 350 353 355 349 344 346 350 348 347 348 347 349 349 348 347 346 347 348 350 353 353 353 352 350 352 354 356 356 355 359 358 359 360 358 360 360 360 359 358 359 359
335 335 335 337 338 338 340 342 341 342 345 348 349 349 349 350 351 348 345 346 350 349 350 352 353 352 346 348 352 354 353 354 357 351 347 348 347 346 345 345 346 348 351 351 352 350 350 352 354 356 357 359 360 361 361 361 361 360 360 359 357 358 359
334 333 335 335 337 338 338 338 338 339 339 338 339 345 349 351 350 349 348 348 351 349 348 347 346 347 350 349 349 347 349 360 357 356 358 361 362 354 350 352 349 345 344 348 349 350 350 351 352 357 357 359 360 359 360 360 360 361 362 361 359 358 357
332 332 332 334 335 338 337 335 338 339 340 340 341 340 344 347 347 348 347 348 349 350 351 353 353 350 351 349 350 350 348 353 354 355 358 359 356 353 352 351 350 351 351 352 351 348 349 356 351 353 356 359 360 360 360 361 362 362 362 362 362 362 359
330 331 330 333 334 336 338 336 338 338 339 339 339 340 342 343 344 346 347 348 349 349 350 351 349 351 354 349 349 352 356 357 356 356 355 354 353 352 352 350 351 349 349 349 349 348 350 350 351 350 355 355 358 358 358 358 360 362 362 361 362 360 359
330 331 332 334 334 334 335 337 338 339 338 338 341 341 342 343 342 345 345 346 345 347 352 351 349 350 349 348 354 357 356 354 352 353 351 349 350 350 350 349 351 350 349 349 349 348 349 348 350 352 352 350 354 355 357 356 357 340 332 338 344 360 360
331 331 332 332 333 333 336 335 336 338 338 338 338 339 341 342 344 345 344 347 349 348 352 352 350 349 348 348 351 353 353 353 352 350 349 348 347 347 348 347 347 347 349 351 353 351 353 350 349 347 346 348 351 352 355 347 335 329 331 335 338 350 354
332 334 333 334 333 332 333 334 334 334 335 336 338 338 340 341 341 342 342 342 345 349 348 348 350 351 350 351 351 352 352 352 352 350 347 346 347 348 348 346 346 345 347 351 353 355 355 351 350 347 350 349 350 350 349 341 330 328 331 332 336 342 355
332 332 334 334 334 333 334 335 335 335 336 337 337 339 342 343 342 343 345 344 344 344 343 344 345 345 344 345 346 348 349 350 350 350 348 348 349 348 347 345 344 346 348 351 353 351 353 355 353 352 349 351 349 346 343 337 328 326 327 329 330 335 347
332 331 333 334 333 334 335 334 335 336 337 338 339 341 341 340 342 342 343 343 343 343 342 341 341 342 343 343 344 344 345 347 348 348 349 349 349 349 349 346 344 347 351 351 349 350 348 348 350 352 352 351 349 344 339 332 322 322 324 324 327 329 350
334 334 332 333 333 335 334 335 337 338 339 342 342 342 341 341 342 340 339 342 341 341 340 339 338 338 340 340 341 342 343 344 345 346 346 348 349 349 348 348 347 348 352 352 350 351 351 349 350 350 350 350 349 343 338 326 317 317 318 320 323 332 352
335 335 335 337 338 337 339 339 338 340 342 342 342 341 341 341 341 340 340 341 340 339 339 338 337 337 338 338 338 340 341 342 344 345 345 345 345 346 348 347 347 348 350 349 350 351 349 348 347 349 349 351 349 342 335 329 319 315 315 317 319 337 354
335 334 333 334 335 338 339 340 341 342 341 338 338 338 339 339 339 339 339 339 339 338 337 337 336 337 337 337 338 339 339 340 340 341 342 342 342 343 345 346 346 345 350 347 348 348 348 346 346 347 349 350 345 339 332 327 321 313 313 314 317 331 349
331 329 328 329 331 332 336 335 338 339 340 339 338 338 337 339 338 335 332 331 331 330 329 329 333 337 336 337 339 339 339 339 339 339 339 339 340 342 342 343 343 344 347 347 347 348 347 346 343 343 343 342 340 340 330 327 325 314 312 313 315 331 348
324 325 326 327 329 329 331 334 330 327 328 330 333 331 332 333 330 328 327 327 328 328 327 328 330 332 335 335 337 340 340 340 340 340 340 340 341 342 343 344 344 342 343 344 344 345 346 344 342 340 339 338 335 332 330 327 325 320 311 310 313 322 352
322 322 321 321 322 328 321 323 325 325 326 326 327 328 328 328 325 325 326 326 325 325 326 327 329 330 331 333 334 335 335 338 340 339 341 342 341 342 342 341 340 339 339 340 341 341 340 341 339 334 331 331 331 331 331 330 326 323 311 309 310 316 336
322 320 320 323 326 322 320 321 322 324 325 326 326 327 326 326 325 325 325 324 323 324 326 327 327 328 330 331 332 334 336 336 337 341 342 342 341 339 339 339 338 337 336 335 333 331 330 331 331 329 328 328 329 328 328 331 329 327 318 311 308 309 317
318 319 319 319 320 323 322 321 322 321 322 324 326 326 326 326 325 324 325 324 325 328 328 328 329 330 330 329 330 333 334 334 334 334 335 335 338 338 337 337 336 335 334 333 332 331 329 329 328 327 327 327 328 329 329 329 330 326 326 317 310 308 311
321 319 318 319 319 320 322 320 321 324 322 323 324 324 325 325 324 325 323 322 326 327 329 330 333 331 331 332 330 329 331 334 337 335 334 336 335 338 337 336 335 335 334 332 331 330 329 328 327 326 325 325 326 329 330 330 329 330 328 326 317 312 310
320 318 318 318 317 320 320 319 319 320 321 322 323 324 325 324 324 324 322 323 327 326 327 327 327 327 325 327 329 330 330 330 330 332 332 332 332 333 336 337 338 334 333 333 332 332 331 330 329 327 326 325 324 325 327 329 329 329 329 329 330 322 318
318 318 319 320 319 318 317 317 318 320 320 321 323 324 326 324 324 323 322 325 328 326 326 326 326 326 326 324 321 322 332 330 329 330 330 331 329 328 325 324 324 323 320 324 330 331 331 331 331 329 327 324 324 326 327 329 330 325 324 326 326 327 324
319 319 319 319 322 322 318 318 317 316 316 315 317 319 322 323 325 324 324 327 326 325 327 329 328 327 323 317 320 321 320 322 321 321 322 322 323 324 323 320 317 316 318 317 316 318 328 334 333 331 329 328 327 328 329 321 319 318 318 317 318 320 323
319 319 322 324 325 322 320 320 321 322 322 321 321 321 321 320 321 323 323 323 322 323 324 325 326 324 321 321 322 322 323 323 330 322 317 317 317 317 319 318 315 313 313 313 313 316 320 323 324 323 324 326 328 323 319 317 318 316 314 314 313 315 317
322 321 321 323 323 324 320 320 320 320 322 321 321 322 322 321 320 321 322 324 326 325 326 325 325 329 324 319 319 319 324 325 321 319 316 313 312 311 311 313 318 314 313 314 314 316 318 319 320 320 317 317 319 319 317 316 315 317 306 310 303 306 312
323 322 322 323 324 323 323 323 322 320 320 320 321 322 322 322 323 323 324 324 323 325 325 325 326 325 318 319 320 321 321 322 322 320 318 315 313 311 312 310 302 307 313 312 312 306 304 310 317 318 315 313 313 316 316 314 315 305 297 295 295 296 296
323 322 322 323 322 322 322 322 322 322 321 321 324 323 324 322 322 322 325 325 325 325 323 323 322 319 317 319 320 323 321 321 321 322 320 317 315 314 313 311 310 297 297 307 306 300 296 296 301 307 313 318 312 312 305 306 298 295 296 296 298 295 294
325 325 325 323 324 322 323 322 322 320 321 320 321 322 322 323 323 322 322 322 323 324 322 321 319 316 317 317 320 325 325 320 322 324 324 321 319 316 315 313 311 310 301 294 298 298 294 294 294 296 299 306 312 314 311 302 295 293 294 295 294 293 293

ECMWFFLT1_sfc_thetae_114.txt.gz
Theta_e
337 338 336 335 333 331 332 336 337 339 340 340 341 344 347 349 350 350 350 352 352 352 354 354 355 356 355 353 354 353 354 354 355 354 354 355 356 355 355 355 354 354 353 353 354 355 354 356 355 357 357 356 359 361 360 362 361 365 361 362 361 363 358
335 337 337 335 334 333 333 336 337 338 340 340 340 345 347 349 350 350 351 353 353 353 354 355 355 355 355 354 355 353 354 354 356 359 356 357 358 356 357 356 355 354 354 354 354 355 357 356 355 355 356 357 358 360 359 359 357 358 358 359 358 359 360
334 336 337 335 334 334 335 335 337 338 338 340 341 346 347 349 350 350 351 353 353 353 355 354 356 355 356 355 355 353 354 354 355 356 354 355 357 357 357 357 356 355 357 357 355 356 360 357 356 355 356 356 356 359 359 360 359 359 359 357 356 355 356
334 335 337 335 335 335 337 337 337 337 339 340 342 346 347 349 350 351 352 353 353 354 354 354 355 355 356 355 355 354 354 354 355 355 355 355 356 357 357 357 358 358 358 357 359 360 360 357 354 355 362 355 355 357 358 359 360 359 360 360 358 356 354
334 335 337 335 334 334 335 338 338 338 339 341 343 348 348 350 351 351 352 353 354 354 355 355 355 356 357 357 356 356 356 355 356 356 355 354 355 355 355 355 357 357 358 357 357 361 358 356 354 357 357 354 354 355 358 358 358 359 357 359 357 358 357
333 334 336 335 334 334 335 339 339 339 340 340 344 346 349 350 351 351 352 353 353 355 356 355 354 355 355 356 356 356 357 357 357 357 355 354 353 353 353 353 354 354 355 356 357 358 357 355 354 356 356 354 354 355 357 358 358 359 358 360 358 357 359
333 335 336 335 334 334 336 337 338 339 340 341 344 348 349 350 350 350 352 353 354 353 354 354 354 355 355 356 355 355 354 356 357 358 356 355 353 353 352 353 354 353 354 357 356 357 356 354 354 355 355 356 357 357 355 356 357 359 358 360 358 357 356
334 335 336 335 335 336 336 337 338 338 340 341 342 345 347 349 350 350 351 352 353 353 354 354 354 354 355 355 354 354 354 355 357 358 357 354 354 353 353 353 354 354 354 355 356 356 356 354 354 355 355 354 354 354 356 356 355 358 358 359 359 358 360
336 336 337 337 339 339 337 337 338 338 340 341 342 343 346 348 349 350 351 351 352 352 353 354 354 354 355 355 354 354 354 355 356 356 355 354 354 354 353 353 354 355 354 354 355 356 355 355 355 354 355 354 353 353 354 355 356 356 357 357 357 358 359
335 336 339 341 341 346 343 338 338 338 340 341 341 341 344 348 350 350 351 352 351 351 352 353 353 354 353 354 353 354 354 353 355 355 353 352 353 353 354 354 353 356 354 353 354 354 355 355 356 355 355 354 354 354 354 355 356 356 356 357 358 357 357
335 336 338 339 341 341 341 339 336 337 339 340 341 342 344 348 349 349 350 351 350 350 349 350 349 352 352 353 352 352 353 353 354 353 352 351 352 353 354 353 353 354 354 353 352 353 353 355 355 354 354 355 354 355 354 356 357 357 356 356 357 358 358
333 335 334 333 335 336 335 338 339 339 338 340 342 343 345 347 348 348 348 349 350 348 347 348 349 349 350 349 350 346 347 348 348 351 352 351 351 352 353 353 353 353 354 353 351 352 353 353 354 355 354 355 354 355 356 356 358 357 357 357 357 357 357
333 333 333 335 336 336 336 337 337 338 340 342 343 344 345 346 346 347 347 347 348 348 347 348 347 346 347 347 346 344 344 343 344 344 347 351 350 352 352 352 352 352 352 353 352 350 351 352 353 355 354 355 355 355 356 355 356 357 357 357 356 356 356
335 332 333 335 336 336 335 336 337 338 340 341 343 344 343 344 345 345 345 345 346 347 347 348 347 346 347 348 347 345 346 346 347 347 351 350 349 347 348 350 350 350 352 353 351 350 349 350 352 353 353 353 355 356 358 356 355 356 356 357 357 356 355
329 331 332 334 335 335 335 335 336 337 338 338 339 339 339 340 341 342 342 343 343 344 345 346 346 347 348 347 345 345 347 347 347 347 353 354 350 350 348 349 348 347 348 350 350 351 349 349 351 351 352 353 354 357 359 358 357 358 357 357 357 356 354
329 330 332 333 335 335 335 336 336 336 337 337 338 340 340 340 341 342 342 344 345 345 346 345 344 346 347 347 347 347 347 348 349 350 352 350 350 349 349 349 348 348 347 347 347 348 348 347 349 351 352 353 355 356 358 358 360 362 364 364 360 357 358
328 329 331 332 333 334 335 336 336 337 337 337 338 339 341 340 341 343 342 343 344 345 346 346 344 344 346 347 349 352 353 352 350 350 348 347 348 347 346 346 347 347 347 347 346 346 349 347 348 349 350 351 352 355 357 355 353 341 333 338 347 360 357
328 329 330 331 332 334 334 335 335 335 335 337 339 339 340 339 340 340 340 344 346 346 347 347 345 343 343 344 346 351 350 349 349 348 346 346 346 346 345 345 345 346 347 347 348 347 347 346 346 346 347 349 352 354 352 347 339 329 332 334 336 348 353
329 330 330 330 331 332 333 333 334 334 335 336 337 338 340 342 341 341 343 344 345 346 345 345 345 342 343 346 347 346 346 349 349 347 345 346 346 346 345 344 344 344 348 349 349 349 345 344 345 344 347 347 349 351 350 341 329 329 333 334 333 341 353
331 331 331 332 332 331 332 333 334 335 336 337 338 340 341 342 341 341 342 342 342 342 343 342 342 342 343 344 343 343 344 344 344 343 343 344 345 345 344 344 343 344 347 351 351 349 347 346 344 344 344 345 347 347 342 337 328 326 328 329 332 339 349
329 330 330 332 332 332 332 334 335 336 337 338 339 340 341 341 342 341 341 341 340 340 340 340 340 339 341 341 342 343 343 344 346 345 344 344 346 346 345 344 343 345 348 348 348 348 347 347 347 346 348 349 345 342 337 328 320 321 323 324 329 335 350
331 331 331 332 332 332 333 334 335 336 337 340 339 339 340 340 342 341 339 340 338 338 338 338 338 338 338 338 340 340 341 342 344 345 345 345 347 347 345 344 344 346 348 347 346 346 347 347 346 346 347 347 343 339 331 324 317 317 318 320 324 340 350
331 332 332 334 335 335 336 337 337 338 339 340 340 339 339 340 340 339 338 337 338 337 337 336 335 336 337 337 338 339 339 340 342 342 341 342 342 342 341 343 344 346 348 347 346 346 345 344 346 346 346 347 342 336 331 328 318 315 315 316 318 338 346
330 332 333 334 335 336 337 338 340 341 340 339 339 340 340 340 340 338 337 337 337 336 335 336 335 336 336 337 338 337 338 339 340 340 340 340 341 342 344 344 344 344 349 345 346 345 345 344 343 343 344 346 340 335 330 326 321 313 313 314 317 329 346
329 331 331 332 332 332 333 334 335 335 335 335 334 335 336 335 334 332 331 332 332 333 334 335 335 336 336 338 338 338 339 339 339 339 338 339 340 341 341 342 343 345 344 345 345 345 345 345 342 341 340 340 337 337 329 327 325 314 311 312 314 327 342
326 326 329 332 333 333 333 333 332 331 330 330 330 332 332 333 332 330 329 329 328 328 329 331 333 334 336 338 339 340 340 340 339 338 338 339 341 342 341 343 342 341 342 343 344 343 342 342 340 337 334 333 331 330 328 326 325 321 310 309 312 318 341
326 326 326 328 329 332 328 329 329 329 329 330 331 331 329 329 328 328 328 326 326 327 329 332 331 332 332 333 335 337 338 338 338 338 339 340 339 340 339 338 338 338 338 338 337 335 335 335 332 330 329 329 329 330 330 329 326 325 311 309 309 311 325
326 324 322 325 327 325 325 326 327 327 328 329 327 328 329 327 325 324 324 323 323 325 327 329 329 330 331 332 333 334 335 335 337 340 340 340 338 335 335 335 336 335 335 334 332 331 329 330 329 327 327 328 329 328 328 331 330 327 318 313 310 310 312
317 318 319 320 321 324 323 321 322 323 325 326 327 326 327 325 324 324 325 324 324 326 326 327 328 329 330 331 331 332 332 332 334 335 337 338 338 335 333 333 333 333 333 331 330 329 327 327 327 327 326 327 328 328 328 329 331 328 330 319 312 311 312
316 317 317 319 321 322 324 321 321 321 322 323 323 323 323 323 323 323 322 321 324 326 329 330 329 329 331 332 328 330 333 332 332 332 334 337 337 335 332 331 331 331 331 330 330 328 326 326 326 326 325 325 325 327 328 328 328 327 327 326 316 313 312
315 315 317 318 319 322 321 320 319 320 321 322 322 323 323 323 323 323 321 323 326 325 325 326 327 327 328 329 329 330 329 330 328 327 326 326 327 327 327 326 326 325 327 331 328 327 326 325 326 325 325 324 324 325 326 326 324 322 325 326 325 317 314
315 316 317 318 319 320 320 320 320 320 319 319 320 321 323 321 321 321 320 324 328 327 327 327 327 326 323 323 326 328 328 322 322 322 322 322 321 320 318 319 321 319 317 319 327 328 326 326 324 323 322 322 323 324 325 323 320 318 319 323 323 324 320
314 314 314 314 318 320 318 317 316 316 316 316 318 321 322 321 323 322 323 321 321 323 327 332 328 327 321 319 321 322 322 321 320 319 319 318 317 316 316 315 314 316 319 317 319 326 330 330 328 326 325 324 324 320 318 317 316 316 316 315 316 317 319
317 319 318 317 318 319 318 319 318 317 317 317 316 318 319 320 320 320 320 322 323 323 325 329 327 319 317 319 323 323 324 326 328 319 314 314 313 313 313 313 313 313 313 313 314 318 320 324 325 324 325 323 319 316 317 316 316 314 312 314 312 312 314
317 318 317 317 318 320 317 317 318 319 319 318 318 317 316 317 319 320 319 320 321 321 324 327 329 322 316 317 320 323 324 321 318 314 312 310 310 308 308 310 313 312 311 312 310 312 316 318 317 317 316 317 316 316 316 315 314 314 304 308 302 305 309
317 318 318 319 319 318 318 319 318 317 317 317 318 317 318 318 318 319 321 320 320 321 322 323 319 317 317 318 318 320 319 317 315 314 313 310 309 309 309 307 300 304 310 310 312 305 302 308 315 316 314 312 311 314 314 313 312 300 296 294 295 296 296
317 317 317 318 318 317 317 316 318 317 316 315 318 319 319 318 318 318 319 319 319 319 318 317 318 317 318 321 320 321 321 317 314 313 311 310 309 310 310 308 307 296 296 304 305 299 296 296 298 303 309 319 311 310 303 301 297 294 293 295 295 294 293
319 318 318 318 317 318 318 318 318 316 317 316 318 317 317 318 318 317 318 318 319 319 317 316 316 315 316 318 320 324 322 318 319 318 314 312 310 310 310 308 307 307 299 295 298 296 293 294 294 295 296 299 306 315 310 302 295 293 293 293 294 293 293

ECMWFFLT1_sfc_thetae_117.txt.gz
Theta_e
334 337 335 328 328 332 334 336 337 338 338 340 341 342 343 344 346 346 346 347 348 348 351 352 353 352 351 350 350 350 351 351 352 349 349 349 351 351 349 351 351 352 351 351 351 351 353 355 354 355 355 355 354 355 355 357 356 360 356 358 357 358 353
332 336 337 331 327 331 334 336 338 338 339 340 341 342 344 344 346 346 346 348 348 348 350 352 353 352 352 351 351 351 350 350 353 354 351 351 355 353 352 352 352 352 352 352 352 353 354 354 354 353 354 355 356 356 357 358 356 356 356 356 354 354 356
332 335 337 334 328 330 333 335 337 339 339 340 342 342 344 344 346 346 347 348 348 349 351 351 353 353 353 352 351 351 351 351 353 353 351 351 353 354 354 354 353 353 353 353 353 354 357 354 353 353 354 354 355 355 356 356 356 356 355 353 354 353 351
332 334 337 335 330 330 333 335 337 339 340 340 341 342 344 345 346 347 348 349 349 349 350 351 353 353 353 352 352 351 351 351 352 354 353 353 353 355 354 354 354 354 353 354 355 355 357 356 355 352 359 354 354 355 356 357 356 356 355 355 352 352 350
332 334 336 334 330 328 331 334 336 338 339 341 341 344 344 347 348 348 348 350 350 349 351 352 353 354 354 354 353 352 352 352 352 354 354 354 355 355 354 355 354 355 355 356 356 358 356 355 354 353 353 354 353 353 356 356 356 357 355 356 354 353 353
332 333 334 334 332 329 330 333 336 337 339 340 340 342 345 347 348 348 348 350 350 351 352 352 353 354 353 354 354 353 353 352 353 354 354 353 354 354 354 354 355 355 355 355 357 356 356 355 353 353 353 354 353 353 354 355 356 357 355 356 355 355 356
332 333 334 335 333 331 331 332 335 337 339 341 341 344 346 347 347 348 349 350 351 350 351 351 353 353 354 355 354 354 352 352 352 353 354 353 353 353 353 354 355 354 354 355 355 355 355 354 353 353 354 354 353 352 353 354 355 356 355 354 355 354 353
333 333 334 335 334 333 332 333 335 336 338 339 341 343 344 347 348 348 348 350 351 351 351 352 352 353 354 355 354 353 353 353 353 354 354 353 352 352 352 352 352 353 352 352 354 355 355 354 354 354 354 353 352 353 353 353 354 355 356 355 354 355 357
333 334 334 335 334 333 334 335 335 336 337 338 340 343 345 346 347 347 348 350 350 351 351 353 353 353 354 354 353 353 353 354 354 354 354 353 352 351 351 351 352 353 352 352 353 355 355 355 353 352 353 353 353 353 353 353 354 354 356 355 355 355 356
332 332 335 338 337 336 335 336 338 336 337 338 340 343 345 346 347 347 348 349 350 350 351 353 353 353 353 353 353 353 353 352 353 354 355 354 353 352 352 352 352 353 352 352 352 353 354 355 354 352 352 352 352 351 352 353 353 353 355 355 355 355 355
333 334 335 335 335 334 335 336 337 337 338 337 340 343 345 346 347 347 348 349 350 350 352 352 353 352 352 353 352 352 352 352 353 353 354 354 353 353 353 352 352 352 353 353 352 352 353 354 354 352 351 352 352 352 351 352 353 353 354 355 355 355 355
332 333 334 334 335 335 334 335 336 337 338 339 340 340 343 345 347 348 348 349 350 351 351 352 352 352 352 352 351 351 351 351 352 352 353 353 353 352 353 353 353 352 353 353 352 352 352 352 353 353 352 352 352 352 353 353 353 353 354 354 355 355 356
331 331 331 332 334 335 335 335 335 336 337 338 339 340 340 340 340 341 341 342 342 342 343 346 349 351 351 351 351 350 350 350 350 351 352 352 352 352 352 352 352 352 352 353 353 351 351 351 351 353 353 353 353 353 353 353 354 354 354 354 354 354 354
333 331 331 332 333 334 334 335 335 336 337 338 338 340 340 341 341 340 341 342 344 346 345 344 341 342 347 348 349 347 348 348 348 348 348 348 350 350 351 351 351 351 352 352 352 351 350 350 350 351 353 353 353 353 354 353 353 354 354 355 355 354 353
329 329 329 330 331 332 334 334 335 336 337 337 338 339 340 341 341 343 344 345 346 346 346 346 344 342 342 344 344 344 345 345 346 346 346 349 349 348 348 349 350 350 350 351 351 352 351 350 350 350 351 352 352 353 354 354 354 354 354 354 354 354 353
329 329 331 332 332 333 333 334 335 335 335 337 338 339 340 341 341 342 343 343 345 345 345 346 344 343 343 343 342 343 344 344 344 345 346 348 348 348 347 346 347 348 347 348 349 350 350 348 348 349 350 350 350 351 354 355 356 359 361 360 356 354 354
329 330 331 332 332 332 333 334 335 336 336 337 338 339 340 340 341 342 343 343 343 344 345 345 343 343 343 342 343 345 346 344 342 342 341 343 344 342 344 345 346 346 345 346 346 347 348 348 346 347 349 350 350 351 354 356 358 358 347 349 357 359 354
327 330 331 331 333 334 333 334 334 334 335 336 338 339 339 339 339 340 340 342 343 344 345 344 343 343 343 343 345 347 344 343 343 341 341 341 340 340 342 343 342 344 344 344 345 345 347 347 346 346 348 350 350 351 353 354 353 336 337 340 342 358 356
329 330 331 331 332 332 333 333 334 334 335 337 337 337 338 340 339 338 340 341 343 345 344 344 343 343 344 345 346 345 344 343 343 342 341 341 341 340 343 342 341 342 344 345 345 345 345 345 345 345 347 348 348 350 353 348 332 332 336 336 337 347 358
329 329 330 331 332 331 332 333 334 335 335 336 337 339 340 341 339 340 342 343 343 342 341 340 340 340 341 342 343 343 344 343 341 341 341 341 341 340 340 341 340 341 342 345 348 344 342 342 342 342 343 345 346 349 346 337 327 328 331 331 334 340 352
329 329 329 331 331 332 332 334 335 335 336 337 339 339 340 340 340 340 340 340 340 339 339 338 338 338 339 340 340 341 341 341 340 341 342 341 341 341 341 341 341 342 343 344 344 345 343 343 342 342 345 346 345 343 333 325 320 321 324 324 328 333 349
330 331 330 331 331 331 332 334 335 336 337 340 339 340 340 340 340 339 338 339 338 338 338 337 336 336 337 337 339 339 340 341 342 342 342 343 343 344 343 342 341 342 345 345 344 342 341 342 344 344 343 342 340 335 328 322 317 318 319 320 322 330 342
330 331 333 334 335 334 336 337 337 337 337 337 338 338 338 339 339 338 337 337 337 337 337 336 334 334 336 337 337 339 339 340 341 340 341 343 343 342 342 342 341 343 346 344 342 343 342 341 342 344 343 342 337 332 328 325 320 315 315 317 319 330 341
330 331 332 334 334 335 335 336 337 338 337 336 336 337 338 338 337 337 335 335 335 334 334 334 334 335 336 336 337 337 338 340 340 340 339 339 339 340 340 340 341 342 344 343 343 341 341 342 341 341 342 340 335 331 327 325 322 313 312 313 315 328 338
330 331 331 331 330 331 331 332 332 333 333 332 332 333 334 334 335 335 334 334 334 334 334 334 334 335 335 337 338 337 337 338 338 337 337 337 338 339 338 340 341 343 346 345 345 342 342 344 341 340 337 336 336 338 328 326 325 314 312 312 313 327 335
325 327 328 329 329 329 330 331 330 329 329 329 330 332 332 333 332 332 330 331 333 333 333 333 335 337 338 338 338 338 338 339 340 339 338 337 338 338 338 340 340 339 341 342 342 341 342 343 340 336 331 332 330 330 328 326 324 321 312 311 312 317 335
324 326 326 328 328 330 328 328 328 327 327 328 329 330 330 329 328 327 329 331 330 331 332 332 333 333 334 335 338 338 338 338 339 339 339 339 338 338 337 337 337 337 336 334 335 338 339 337 333 329 329 329 329 329 329 329 326 325 311 309 310 313 324
323 325 327 329 330 328 326 326 326 327 328 329 329 328 327 326 325 325 326 326 327 328 331 332 332 332 332 332 333 334 335 337 338 339 338 338 336 333 333 334 335 335 333 332 330 329 328 328 328 327 327 327 328 328 328 332 331 328 317 311 309 310 315
319 320 321 321 323 326 325 323 323 325 326 328 329 329 328 327 324 324 324 323 324 327 327 329 330 331 332 332 332 333 333 335 337 336 337 335 334 332 331 332 332 332 332 330 329 328 327 326 326 326 325 326 326 327 327 326 329 327 325 315 310 309 311
317 317 319 321 323 323 323 320 320 320 322 323 325 326 327 325 324 325 322 321 324 326 330 328 328 330 331 333 330 330 332 332 332 331 332 334 332 330 328 328 329 330 330 329 328 327 326 326 326 325 325 324 324 325 324 323 323 326 326 322 313 311 310
315 316 317 318 319 322 321 319 319 319 320 321 322 322 322 323 323 323 322 323 327 326 326 326 328 327 328 328 328 327 325 324 323 323 322 321 323 324 323 322 323 322 324 328 325 325 325 325 326 325 325 324 324 323 322 321 320 319 323 324 322 315 313
315 316 317 317 317 320 319 319 318 318 318 319 320 320 322 320 321 321 320 323 326 325 326 327 327 326 324 326 325 322 322 319 318 317 317 316 317 318 318 320 323 322 321 325 325 324 323 323 323 323 323 322 322 320 318 317 317 316 317 320 321 321 318
314 314 315 316 319 318 315 316 317 318 318 317 318 319 320 319 320 321 322 323 323 325 328 328 325 325 321 321 322 321 320 317 316 315 315 314 313 314 316 317 317 320 322 320 322 325 326 326 326 325 325 322 317 316 317 314 313 312 313 312 313 314 316
313 314 315 315 316 316 315 316 316 316 316 316 316 318 319 319 319 319 319 321 323 325 328 328 323 318 319 321 322 324 323 323 325 316 312 312 311 311 312 314 315 314 314 314 316 321 322 326 325 324 322 316 315 314 314 313 312 310 309 309 309 310 312
314 314 315 315 316 318 315 315 315 316 317 316 315 315 316 317 318 318 318 319 320 323 325 326 326 323 320 323 325 326 325 319 315 312 310 309 308 308 306 306 309 310 312 311 310 312 317 318 318 319 317 315 314 314 313 313 311 311 304 307 303 304 307
313 314 315 317 317 316 316 317 316 316 316 314 314 316 317 316 317 318 319 318 317 319 322 321 319 317 317 318 318 319 319 316 314 313 312 309 308 308 308 306 299 300 308 309 311 306 302 308 314 315 313 310 309 311 311 309 311 304 296 294 295 296 296
314 314 315 315 315 314 314 314 316 316 315 314 316 317 318 317 317 316 318 318 317 317 316 317 319 318 317 319 317 318 317 314 311 310 309 309 309 309 311 307 307 298 298 303 304 299 296 296 298 303 309 315 308 307 304 304 297 293 293 294 294 293 293
314 314 315 314 314 315 315 316 316 315 315 314 316 315 315 317 317 316 317 318 318 317 315 315 317 315 316 317 319 322 317 312 314 313 310 308 307 308 308 305 304 306 301 297 298 297 293 292 293 294 295 298 305 314 307 300 293 291 292 293 293 293 293

ECMWFFLT1_sfc_thetae_120.txt.gz
Theta_e
331 334 327 327 330 331 333 335 336 336 337 338 340 340 341 343 344 345 345 345 346 346 348 350 350 350 349 349 349 349 350 350 351 350 350 350 350 350 350 351 352 353 354 353 353 353 356 359 359 358 360 359 358 358 358 360 361 363 362 363 359 360 358
330 334 330 327 329 331 333 335 336 337 337 339 340 341 341 343 344 344 345 345 346 346 348 350 351 350 350 350 350 350 350 351 353 354 351 352 355 353 352 352 352 353 354 354 354 355 357 357 358 357 357 359 359 359 358 359 361 361 361 362 360 360 363
330 334 334 327 328 330 332 335 336 337 337 338 340 340 341 343 345 345 345 345 345 346 349 350 352 351 351 350 350 350 351 351 353 353 351 350 352 354 353 353 353 354 355 355 355 355 358 357 357 357 357 357 358 358 359 359 361 360 360 360 361 360 358
331 332 336 331 328 331 333 335 336 338 338 339 340 341 341 343 345 346 346 346 346 346 347 350 352 351 351 351 350 350 351 351 353 353 352 352 352 354 355 355 355 355 355 355 355 356 358 359 357 356 360 357 357 357 358 360 360 360 360 360 359 358 358
330 332 335 334 328 329 332 334 336 337 338 339 341 343 343 343 345 346 346 347 347 347 348 350 352 353 353 352 351 351 352 351 352 354 354 353 354 355 355 354 355 355 355 356 357 358 358 358 357 357 356 358 357 357 358 359 359 360 359 360 360 359 359
329 330 333 336 331 328 331 333 336 337 338 339 340 341 342 343 345 346 346 348 348 348 349 350 351 353 352 353 353 352 353 353 353 355 354 354 354 355 355 355 355 356 355 356 358 358 357 357 357 357 356 355 355 356 356 357 358 360 360 360 360 360 360
330 330 332 336 334 329 330 333 335 338 339 340 341 343 344 344 344 345 346 347 349 347 348 349 351 352 353 354 353 354 352 352 352 353 355 354 355 355 355 356 358 357 357 358 357 358 357 357 358 357 356 356 357 355 356 357 358 359 360 360 360 360 360
331 331 332 335 335 330 330 333 335 337 339 340 340 341 342 344 345 345 346 347 348 349 349 349 350 351 352 354 354 353 353 353 353 353 354 354 354 354 355 355 356 357 357 356 357 358 357 357 357 357 356 356 356 356 356 356 358 357 359 358 358 358 358
331 332 332 334 334 330 329 331 334 336 338 339 339 341 342 343 345 345 346 347 348 349 349 350 351 352 353 353 353 353 353 353 353 353 353 353 353 353 354 354 355 356 356 355 355 357 357 357 357 357 357 356 357 356 356 356 356 357 358 358 358 358 358
330 331 333 335 334 333 331 332 333 335 337 338 339 340 341 343 345 346 347 347 348 349 350 351 352 353 353 353 353 354 353 353 353 353 353 353 353 353 353 354 354 355 354 354 354 354 357 358 358 357 356 356 357 356 356 356 356 356 357 358 358 358 358
331 332 333 334 333 333 334 334 333 334 336 337 338 340 341 343 345 346 347 347 349 350 351 352 353 353 353 353 353 353 353 353 353 353 353 353 353 353 353 353 353 354 354 354 353 354 354 357 358 357 356 354 355 356 356 356 356 356 356 357 358 359 358
331 332 332 332 333 333 332 334 335 335 336 337 338 341 343 343 343 342 343 345 347 348 350 352 353 353 353 353 353 352 353 353 353 353 353 354 354 354 354 354 354 353 354 354 353 354 354 354 355 356 356 356 355 356 356 356 357 357 357 356 357 358 358
331 331 331 332 333 333 333 334 335 336 337 339 340 341 342 342 342 342 343 345 346 347 348 348 350 351 352 353 352 352 352 352 352 353 354 354 355 355 355 354 354 354 353 354 354 354 353 353 355 356 356 356 355 355 356 356 356 357 357 357 357 357 358
331 330 331 332 332 333 333 334 334 335 336 337 338 340 342 344 343 343 344 344 346 347 348 349 349 350 351 352 352 351 351 352 352 352 352 353 354 354 354 354 354 354 355 355 354 353 353 353 353 354 356 356 356 356 357 357 356 357 357 358 357 357 357
329 330 331 331 330 331 333 333 333 334 335 336 338 339 340 341 342 344 345 346 346 347 348 350 349 348 350 350 350 349 349 348 347 347 347 347 347 346 346 348 350 353 354 355 355 354 354 354 354 354 354 355 356 356 356 355 355 356 357 358 358 358 356
329 330 331 332 331 331 333 333 333 333 335 336 337 338 339 340 340 342 343 344 346 347 348 348 348 347 348 348 349 348 347 345 346 344 344 344 344 344 346 347 348 349 350 352 353 354 355 355 354 353 353 353 354 355 355 356 357 358 360 359 359 358 357
329 331 332 332 331 332 333 334 334 334 335 336 337 338 339 340 341 342 343 344 345 345 347 347 346 347 347 348 347 347 345 345 345 345 344 345 345 345 346 346 346 347 347 348 349 351 353 354 352 351 352 352 352 352 354 355 357 355 345 346 354 361 358
329 329 330 331 331 331 333 333 334 334 335 335 337 338 339 339 340 341 342 343 344 344 345 345 345 345 346 346 346 346 344 344 344 344 343 343 343 344 344 344 344 345 346 348 348 349 350 350 351 351 351 351 352 352 353 354 354 343 341 342 343 356 360
329 329 330 330 331 331 332 333 334 334 335 337 337 338 339 340 340 340 341 342 342 343 342 342 342 342 342 345 345 345 344 344 343 342 342 342 342 343 343 342 342 342 343 346 350 351 348 348 348 348 350 349 350 351 353 354 341 337 340 340 340 344 362
329 330 331 331 332 332 332 333 334 335 336 336 338 340 341 342 341 341 342 343 343 342 341 340 341 342 342 343 345 344 344 344 343 341 341 342 342 342 342 342 342 343 345 348 347 346 345 346 346 346 347 348 349 351 353 350 331 329 331 332 333 335 349
329 329 329 330 331 332 333 334 334 335 336 338 339 341 341 340 341 341 341 341 341 341 340 340 340 340 341 341 343 343 343 342 342 341 342 342 341 341 342 343 342 343 345 345 345 345 344 344 345 347 349 349 349 350 343 328 320 322 324 324 326 329 339
330 330 330 331 332 333 334 335 335 336 337 340 340 340 340 340 341 341 340 340 339 339 339 339 338 338 339 339 340 342 341 341 341 342 340 340 340 341 341 341 341 341 345 346 344 343 344 345 345 346 345 344 344 343 333 325 317 318 319 320 322 329 340
331 332 333 333 334 333 334 335 335 336 336 337 338 338 339 339 340 339 339 338 338 337 337 337 336 336 337 337 338 341 342 342 341 341 341 341 340 341 342 342 342 343 347 343 343 343 344 344 345 346 346 345 340 335 329 327 320 315 315 317 320 333 340
329 329 330 332 332 333 333 333 334 334 334 334 334 335 337 338 338 337 336 336 336 335 334 335 334 336 337 336 337 338 341 342 341 341 341 341 341 341 340 341 341 341 346 344 343 342 343 344 343 341 342 340 337 333 329 328 323 313 313 314 317 332 339
327 327 328 329 329 329 330 331 331 330 330 330 330 331 334 334 335 335 334 334 334 334 333 333 334 335 335 336 337 338 338 339 340 339 338 339 340 342 342 342 341 343 345 344 344 343 343 345 341 339 336 336 336 336 329 328 326 314 312 313 314 329 338
324 325 326 327 328 328 328 329 328 327 326 326 326 329 330 332 333 333 333 333 334 333 332 333 334 336 337 338 338 339 339 340 340 339 338 337 338 339 340 341 340 340 342 344 344 343 341 344 340 336 331 331 330 330 328 327 327 320 310 310 313 320 339
325 326 326 326 327 329 326 326 326 325 325 325 326 328 329 329 329 328 329 329 329 330 332 333 335 335 335 336 337 338 338 339 339 337 337 337 336 337 337 337 337 337 337 338 341 341 340 339 335 331 329 329 330 330 331 331 327 321 310 308 310 316 332
323 324 326 328 329 327 324 324 324 325 325 326 326 326 327 327 326 326 325 324 324 327 331 333 333 334 334 334 334 335 336 337 336 336 335 335 335 333 333 335 335 335 334 334 336 336 331 330 330 328 327 328 329 328 327 331 329 326 315 310 308 308 316
320 320 321 322 322 325 323 320 321 322 323 325 326 326 325 324 324 324 324 323 324 329 331 332 333 333 332 332 333 335 334 333 334 334 334 333 333 332 331 332 332 332 332 331 330 329 327 327 327 327 325 324 324 324 324 325 328 325 324 314 309 309 310
318 319 320 321 322 323 323 320 320 320 321 322 323 324 325 323 323 324 323 322 326 328 330 330 330 331 331 331 329 329 328 327 325 324 325 328 329 328 328 329 330 331 330 329 328 327 326 326 326 325 323 321 320 321 321 321 323 324 324 322 313 310 309
317 318 319 319 320 322 321 319 319 319 319 320 321 322 322 323 324 324 322 323 328 327 327 328 330 328 327 325 326 325 322 321 319 319 319 320 322 325 326 326 327 326 327 328 327 327 325 326 326 325 323 321 318 318 318 319 319 319 321 322 321 314 312
316 317 318 318 318 320 318 318 319 319 319 319 321 320 322 320 321 321 321 324 327 328 328 328 328 327 324 323 322 320 320 317 316 316 316 317 319 321 322 324 327 326 325 326 325 325 325 326 327 325 320 318 317 317 316 315 316 315 315 319 319 319 316
314 315 317 317 319 320 317 318 317 318 318 317 318 319 320 320 321 322 324 326 326 327 326 327 327 327 323 320 320 320 319 317 315 314 314 314 315 316 318 319 320 323 325 324 326 327 327 326 326 324 319 316 317 317 316 315 313 313 314 314 314 315 316
313 314 314 315 318 318 316 316 316 317 317 317 316 318 319 319 319 320 320 322 325 326 326 328 325 322 321 322 324 325 323 322 323 315 312 311 311 311 312 313 315 316 315 314 314 322 325 326 326 322 318 317 317 316 315 314 314 313 311 312 312 311 311
313 313 314 316 318 319 315 317 317 317 317 316 316 317 318 318 319 319 319 320 322 325 326 327 328 326 324 325 326 324 322 316 314 312 311 310 309 307 306 307 309 313 313 312 311 313 317 321 320 318 316 315 315 316 315 313 312 314 307 308 302 303 304
313 314 315 316 317 317 318 319 317 317 317 316 317 318 318 317 318 318 319 319 320 324 326 326 323 321 320 321 320 319 318 315 314 313 312 310 310 309 308 306 301 303 310 311 310 303 300 308 315 315 314 311 311 313 312 311 312 302 295 294 294 294 295
314 314 315 316 315 315 317 318 320 318 318 317 319 318 319 318 317 318 319 319 319 320 321 322 322 321 320 321 319 319 316 313 311 311 311 311 311 312 312 310 309 297 297 304 303 298 294 293 294 299 306 316 311 309 302 302 297 293 292 292 293 292 292
314 315 316 315 315 317 317 318 318 318 318 317 318 316 317 318 317 317 319 319 318 319 319 320 321 319 320 321 322 321 317 314 315 314 312 311 311 311 311 310 309 309 300 296 298 298 294 293 293 293 294 295 302 313 311 302 294 292 291 291 291 292 294

ECMWFFLT1_sfc_thetae_123.txt.gz
Theta_e
336 336 334 334 336 336 339 341 343 344 345 346 347 347 348 349 351 353 352 354 355 356 357 359 359 359 358 357 358 359 358 358 358 357 357 358 358 360 360 358 358 361 359 357 359 360 364 365 365 365 366 366 365 366 368 368 368 365 368 370 368 367 367
335 337 335 334 335 338 340 343 344 345 345 346 346 348 348 349 351 351 353 355 355 356 357 357 359 359 359 359 358 360 359 359 359 360 358 360 362 362 360 361 360 363 364 361 362 364 365 363 364 364 364 365 365 368 366 367 367 367 365 368 366 366 366
335 338 337 335 335 337 341 343 344 344 345 345 346 347 347 350 352 353 353 354 355 356 356 356 359 358 359 360 359 359 358 358 359 358 357 356 359 358 360 361 362 360 360 362 366 363 364 362 366 367 365 363 363 366 368 367 367 366 367 369 366 364 367
335 338 339 336 337 340 342 343 344 344 345 345 346 347 348 351 353 354 355 355 354 355 355 355 357 357 358 359 358 359 358 359 359 357 356 356 357 359 361 362 362 361 362 361 362 362 361 363 363 366 367 366 365 365 365 365 364 365 366 369 365 365 367
334 335 338 337 336 338 341 342 344 345 345 345 348 350 350 351 352 353 355 355 355 354 354 354 355 356 358 358 356 356 357 358 359 359 359 358 360 361 360 358 359 359 360 361 364 365 366 365 362 364 364 367 364 365 366 366 364 367 367 368 365 365 364
334 335 338 337 335 338 340 342 344 345 345 345 346 349 349 350 352 351 353 354 355 355 355 357 355 357 357 357 356 356 358 360 361 362 360 361 361 358 358 359 358 359 358 360 362 362 364 363 362 362 361 360 360 359 360 362 361 362 364 367 365 363 362
333 335 338 338 335 336 339 342 344 345 347 346 347 349 350 349 350 351 351 351 353 353 353 354 355 356 358 357 357 358 358 357 360 359 360 359 359 359 359 360 361 359 359 362 361 362 361 362 362 363 362 360 362 360 362 365 364 364 366 367 367 366 366
333 334 336 339 337 334 337 341 343 346 348 348 347 348 349 350 351 352 352 351 351 352 353 353 354 356 357 358 358 357 356 356 358 359 360 359 359 359 359 359 360 362 362 360 362 363 361 362 361 362 362 361 361 363 361 364 367 363 363 365 365 365 361
335 335 335 338 339 336 337 341 343 344 347 347 348 348 350 350 351 351 353 353 354 354 354 354 354 356 359 358 358 358 357 357 358 359 359 358 358 357 357 359 360 362 361 359 359 363 362 361 361 363 365 362 362 364 363 365 364 364 364 365 365 364 360
334 334 337 340 341 341 339 341 344 346 346 347 348 349 349 351 353 352 354 355 355 355 356 356 356 358 359 360 358 357 357 358 358 357 357 357 357 357 358 358 359 362 360 359 359 359 363 363 362 363 366 363 363 364 365 364 363 363 364 365 365 364 363
337 337 338 339 340 339 338 339 340 343 345 347 347 348 348 351 352 352 353 354 354 356 358 358 359 359 359 359 359 358 357 357 358 357 357 357 357 358 358 358 359 360 360 359 358 359 360 363 364 364 365 360 361 363 364 363 364 364 362 363 363 364 361
336 338 339 341 340 339 340 340 341 343 344 345 346 347 347 347 350 353 353 354 354 355 358 359 360 360 359 359 357 359 359 358 358 357 358 358 358 358 358 358 358 359 360 359 358 360 359 359 361 361 363 363 363 363 364 365 365 365 364 362 362 362 362
334 334 336 338 339 339 340 341 342 344 345 346 346 347 348 349 350 351 351 353 354 356 358 360 360 360 360 358 357 358 358 358 360 361 359 359 359 359 359 358 357 357 357 359 359 358 357 357 360 361 361 363 363 361 363 364 363 365 366 364 363 362 362
335 335 336 338 339 339 339 340 341 343 344 345 344 345 344 348 349 350 350 350 352 355 356 356 361 360 359 358 358 358 358 359 360 360 361 361 362 361 360 359 358 358 359 360 359 358 357 356 356 359 360 361 362 363 364 365 364 365 366 364 363 363 362
334 334 335 336 336 338 338 339 340 340 342 344 344 344 344 346 348 351 351 350 349 349 351 356 355 356 359 359 359 360 361 361 361 360 360 361 361 360 359 360 361 361 362 362 361 358 359 358 357 358 359 360 362 363 363 361 361 362 363 364 364 364 361
333 334 335 336 336 338 339 339 339 340 342 344 345 346 344 344 344 346 349 350 350 348 351 353 353 352 350 356 359 361 361 361 361 360 360 359 359 360 361 360 360 359 360 360 360 361 361 361 361 360 359 359 361 362 361 360 361 364 360 361 363 361 357
332 333 334 336 337 337 339 340 339 338 341 342 344 344 344 344 345 346 349 352 351 350 352 350 349 350 350 348 349 358 360 361 361 359 358 359 361 362 361 359 358 358 359 359 360 361 362 361 360 359 358 358 359 360 360 358 358 360 347 345 350 361 359
330 331 332 334 335 336 336 338 338 338 339 342 343 344 344 344 345 346 346 348 349 350 354 352 351 350 348 349 352 355 356 357 357 357 357 358 359 360 361 360 357 357 358 357 357 360 359 358 358 360 359 358 358 358 358 358 360 343 341 341 341 353 360
331 331 332 332 333 335 336 337 338 339 340 341 342 343 345 346 346 345 346 347 350 353 350 351 351 349 347 348 352 353 351 350 349 353 355 355 358 358 359 358 358 357 357 356 359 360 359 360 358 358 359 358 358 357 358 357 351 341 341 341 339 340 355
330 331 333 334 335 336 336 337 338 339 340 341 344 344 345 346 346 347 349 350 351 349 348 347 346 346 345 345 346 347 346 345 349 351 351 353 355 357 357 357 357 358 358 357 358 357 357 357 357 357 358 357 358 359 357 358 334 331 334 334 333 336 345
331 332 333 333 334 335 336 337 338 339 339 340 342 344 344 345 346 347 348 347 346 346 345 344 343 343 343 344 345 346 346 347 349 349 350 350 353 355 356 356 356 355 355 356 356 355 356 356 356 356 356 355 355 356 356 338 321 325 327 327 328 331 344
331 331 330 331 330 331 333 334 335 336 336 338 339 342 343 344 345 345 345 347 347 345 345 343 341 340 341 342 342 342 343 343 344 345 346 346 348 349 350 351 352 353 354 356 357 358 357 356 356 355 354 355 354 354 348 335 317 321 322 323 325 333 349
329 329 331 331 331 330 332 332 332 333 335 336 336 335 336 339 343 344 344 343 344 344 344 343 341 341 341 341 341 342 341 342 342 342 342 343 343 344 345 346 347 349 351 352 353 353 355 355 355 356 355 355 355 352 347 340 323 316 318 320 323 335 353
331 331 332 332 332 332 332 331 331 332 332 332 332 334 336 337 338 341 341 341 342 341 341 342 340 340 340 339 340 340 341 342 341 341 341 342 340 340 342 345 345 346 348 350 350 351 353 354 352 351 350 350 350 348 346 340 324 314 315 316 320 337 351
331 332 333 332 331 331 331 331 332 332 332 331 330 332 334 334 333 332 332 335 336 337 337 338 339 339 339 339 341 341 342 341 341 340 341 341 342 343 343 345 346 347 348 349 349 348 348 349 347 346 345 346 346 342 343 340 331 313 312 313 317 336 352
330 331 331 329 329 330 331 331 331 330 329 329 330 331 332 333 332 331 330 330 334 334 335 337 338 339 340 341 341 341 341 341 340 339 338 337 338 340 341 344 346 346 346 346 347 347 347 349 345 342 338 339 340 339 340 337 333 322 310 311 315 321 348
330 331 329 328 328 329 328 327 327 325 326 327 329 330 331 330 329 329 330 332 332 331 333 335 337 337 338 338 339 339 338 337 336 336 337 337 337 338 339 339 340 340 340 340 344 345 345 345 341 337 335 335 336 337 337 336 334 325 310 309 310 314 331
327 327 328 329 330 328 325 324 325 325 325 327 327 328 329 328 327 327 328 329 330 332 335 335 336 337 336 335 334 336 336 336 336 336 335 336 335 334 334 336 337 336 335 336 336 334 333 334 334 332 330 329 329 331 332 332 329 330 316 310 309 310 316
326 326 326 327 326 326 325 324 322 322 323 324 326 326 326 326 325 326 328 328 329 334 335 335 335 334 333 333 332 331 329 329 330 332 333 332 333 332 331 333 333 333 333 332 331 331 330 329 329 328 325 324 323 323 324 326 329 325 326 314 308 308 310
327 327 326 326 327 326 326 325 325 324 325 326 328 328 329 329 327 328 328 330 334 334 330 330 334 334 331 330 327 327 327 326 326 327 328 330 330 330 330 330 332 332 332 332 330 328 327 327 327 326 324 322 320 321 322 322 325 323 322 322 312 309 308
326 326 326 326 326 328 327 325 324 323 324 325 327 329 331 331 330 329 329 332 336 334 329 327 329 331 328 326 325 324 324 324 323 325 327 328 329 329 330 330 330 329 330 330 329 328 326 326 326 324 322 322 320 320 320 321 322 323 322 322 321 314 311
326 326 325 326 326 326 325 325 325 324 323 324 325 326 329 329 329 330 331 333 335 336 335 333 332 330 327 326 325 324 324 322 322 323 324 324 325 326 327 328 329 329 328 328 328 329 328 326 323 322 321 320 320 320 320 320 320 322 324 323 321 322 317
325 325 325 324 325 326 324 323 322 322 322 322 325 325 325 327 327 330 333 333 332 333 335 333 331 329 327 325 324 325 324 321 319 318 318 319 322 322 322 323 324 325 327 329 330 330 329 328 325 323 320 319 319 320 323 321 321 322 323 322 320 321 322
324 323 325 326 327 327 326 325 323 322 322 323 325 326 325 324 325 328 331 331 331 332 333 332 330 328 328 327 327 326 325 324 324 319 315 314 314 314 317 320 321 320 319 320 322 328 326 325 323 320 320 321 322 323 325 326 322 318 315 316 315 317 318
324 325 327 326 328 328 327 326 324 324 324 324 326 326 326 326 326 326 328 331 333 337 334 332 332 331 328 327 325 324 325 322 320 318 316 313 312 310 310 312 317 319 318 317 316 319 324 325 321 320 319 321 321 322 320 319 316 315 303 308 300 305 311
325 325 325 327 327 328 327 327 326 326 325 326 328 327 326 325 326 328 326 329 331 333 333 332 330 328 325 323 321 320 320 320 319 320 319 316 314 312 310 306 300 305 315 314 310 303 299 306 318 317 319 316 316 318 315 314 315 299 293 293 293 293 294
325 325 325 326 325 326 326 326 327 326 326 327 328 327 326 326 326 328 327 328 330 329 331 331 329 327 326 324 321 320 319 317 317 318 319 319 319 317 314 311 310 297 298 305 304 298 294 294 296 298 303 317 316 314 302 302 295 291 292 292 292 294 295
327 326 326 327 326 326 326 326 327 327 327 327 327 327 327 325 326 329 326 328 328 330 331 330 328 327 326 325 323 323 323 321 321 320 319 318 319 319 318 315 313 312 300 296 300 297 294 293 293 293 295 295 301 314 320 304 297 291 292 291 294 296 296